Regional Weather Roundup
Issued by NWS

Home | Current Version | Previous Version | Graphics & Text | Print | Product List | Glossary On
Versions: 1 2 3 4 5 6 7 8 9 10 11 12 13 14 15 16 17 18 19 20 21 22 23 24 25 26 27 28 29 30 31 32 33 34 35 36 37 38 39 40 41 42 43 44 45 46 47 48 49 50
769
ASUS44 KMEG 292110
RWRTN
TENNESSEE HOURLY STATE WEATHER ROUNDUP
NATIONAL WEATHER SERVICE MEMPHIS TN
400 PM CDT MON AUG 29 2016

TNZ002-004-019-021-049-052-054-088>092-292200-
WEST TENNESSEE

CITY           SKY/WX    TMP DP  RH WIND       PRES   REMARKS
MEMPHIS INTL   PTSUNNY   92  71  50 NE10      30.04F HX  98
NWS MEMPHIS      N/A     89 N/A N/A MISG        N/A
JACKSON        MOSUNNY   91  74  57 E6        30.07F HX 100
DYERSBURG      MOSUNNY   90  75  62 MISG      30.06F HX 100
UNION CITY     MOSUNNY   91  75  59 NE7       30.07F HX 102
PARIS          SUNNY     88  73  62 E6        30.11F HX  96
LEXINGTON      MOSUNNY   88  73  62 NE3       30.08F HX  96
$$

TNZ008-025-027-028-033-062-065-066-292200-
NORTH MIDDLE TENNESSEE

CITY           SKY/WX    TMP DP  RH WIND       PRES   REMARKS
NASHVILLE      MOSUNNY   91  69  48 NE8G16    30.10F HX  96
CLARKSVILLE    PTSUNNY   91  73  55 N9        30.10F HX  99
SMYRNA         MOSUNNY   90  72  55 MISG      30.10F HX  96
COOKEVILLE     SUNNY     90  73  58 NE7       30.11F HX  98
CROSSVILLE     MOSUNNY   86  67  52 N8        30.17F
$$

TNZ061-075-076-078-094-096-097-292200-
SOUTH MIDDLE TENNESSEE

CITY           SKY/WX    TMP DP  RH WIND       PRES   REMARKS
FAYETTEVILLE   SUNNY     90  68  48 NE6       30.10S HX  93
TULLAHOMA      MOSUNNY   88  66  48 N10       30.12F HX  90
WINCHESTER     MOSUNNY   90  70  51 N7        30.10F HX  95
MCMINNVILLE    SUNNY     90  72  55 NE6       30.12F HX  96
COLUMBIA       MOSUNNY   91  75  59 NE8       30.08F HX 102
SHELBYVILLE    MOSUNNY   91  70  49 NE5       30.10F HX  97
$$

TNZ017-018-042-046-047-292200-
NORTHEAST TENNESSEE

CITY           SKY/WX    TMP DP  RH WIND       PRES   REMARKS
TRI CITIES     MOSUNNY   90  66  45 CALM      30.13F HX  92
ELIZABETHTON   MOSUNNY   88  68  51 NW5       30.12F HX  91
$$

TNZ012-013-036-069-073-074-292200-
CENTRAL EAST TENNESSEE

CITY           SKY/WX    TMP DP  RH WIND       PRES   REMARKS
KNOXVILLE      MOSUNNY   92  59  33 N6        30.09F HX  91
GATLINBURG     SUNNY     90  57  33 E10       30.09F
MORRISTOWN     SUNNY     90  59  35 CALM      30.12S
$$

TNZ083-085-099-292200-
SOUTHEAST TENNESSEE

CITY           SKY/WX    TMP DP  RH WIND       PRES   REMARKS
CHATTANOOGA    MOSUNNY   92  64  39 N9        30.08F HX  93
$$

SKY/WX REPORTED AS FAIR MEANS FEW OR NO CLOUDS BELOW
12 THOUSAND FEET.





USA.gov is the U.S. government's official web portal to all federal, state and local government web resources and services.